Jaffrey, NH

10:44 AM EDT on May 20, 2018 (GMT -0400)
Jaffrey Airport-Silver Ranch

Weather History for KAFN - August, 2013

Change the Weather History Date:

Friday, August 30, 2013

  Actual Average Record
Temperature  
Mean Temperature 70 °F -  
Max Temperature 82 °F 73 °F 88 °F (2010)
Min Temperature 59 °F 52 °F 46 °F (2001)
Cooling Degree Days 5    
Growing Degree Days 20 (Base 50)    
Moisture  
Dew Point 60 °F    
Average Humidity 85    
Maximum Humidity 100    
Minimum Humidity 49    
Precipitation  
Precipitation 0.00 in - - ()
Sea Level Pressure  
Sea Level Pressure 29.97 in    
Wind  
Wind Speed 4 mph (SSW)    
Max Wind Speed 8 mph    
Max Gust Speed -    
Visibility 7 miles    
Events      
Averages and records for this station are not official NWS values.
T = Trace of Precipitation, MM = Missing Value Source: NWS Daily Summary

Daily Weather History Graph

Daily Weather History Graph

Search for Another Location

Airport or City:

Astronomy

Aug. 30, 2013 Rise Set
Actual Time 6:10 AM EDT 7:25 PM EDT
Civil Twilight 5:41 AM EDT 7:54 PM EDT
Nautical Twilight 5:06 AM EDT 8:29 PM EDT
Astronomical Twilight 4:29 AM EDT 9:06 PM EDT
Moon 12:42 AM EDT (8/30) 3:43 PM EDT (8/30)
Length of Visible Light 14h 13m
Length of Day
13h 14m
Waning Crescent, 29% of the Moon is Illuminated
Aug 30
Waning Crescent
Sep 5
New
Sep 12
First Quarter
Sep 19
Full
Sep 26
Last Quarter

Hourly Weather History & Observations

Time (EDT) Temp. Heat Index Dew Point Humidity Pressure Visibility Wind Dir Wind Speed Gust Speed Precip Events Conditions
12:52 AM 59.0 °F - 57.0 °F 93% 30.07 in 10.0 mi WSW 4.6 mph - N/A   Overcast
1:52 AM 59.0 °F - 57.0 °F 93% 30.04 in 10.0 mi SSW 5.8 mph - N/A   Overcast
2:45 AM 59.0 °F - 57.2 °F 94% 30.02 in 10.0 mi SSW 4.6 mph - N/A   Mostly Cloudy
2:52 AM 59.0 °F - 57.0 °F 93% 30.03 in 10.0 mi SSW 4.6 mph - N/A   Overcast
3:00 AM 59.0 °F - 57.2 °F 94% 30.02 in 10.0 mi SSW 3.5 mph - N/A   Overcast
3:16 AM 59.0 °F - 57.2 °F 94% 30.01 in 10.0 mi SSW 4.6 mph - N/A   Overcast
3:52 AM 59.0 °F - 57.9 °F 96% 30.01 in 5.0 mi Calm Calm - N/A   Overcast
4:11 AM 59.0 °F - 57.2 °F 94% 30.00 in 1.8 mi South 3.5 mph - N/A   Overcast
4:20 AM 59.0 °F - 57.2 °F 94% 29.99 in 1.0 mi SSW 4.6 mph - N/A   Overcast
4:29 AM 59.0 °F - 57.2 °F 94% 29.99 in 1.5 mi South 3.5 mph - N/A   Overcast
4:52 AM 59.0 °F - 57.9 °F 96% 30.01 in 1.8 mi Variable 3.5 mph - N/A   Overcast
5:13 AM 59.0 °F - 57.2 °F 94% 29.99 in 1.2 mi SSW 3.5 mph - N/A   Overcast
5:29 AM 59.0 °F - 57.2 °F 94% 30.00 in 1.0 mi SW 3.5 mph - N/A   Mist
5:36 AM 59.0 °F - 57.2 °F 94% 30.00 in 1.5 mi SSW 3.5 mph - N/A   Overcast
5:49 AM 59.0 °F - 57.2 °F 94% 30.00 in 3.0 mi SSW 4.6 mph - N/A   Overcast
5:52 AM 59.0 °F - 57.9 °F 96% 30.01 in 4.0 mi SSW 5.8 mph - N/A   Overcast
6:52 AM 60.1 °F - 59.0 °F 96% 30.00 in 1.2 mi SSW 4.6 mph - N/A   Overcast
6:55 AM 60.8 °F - 59.0 °F 94% 29.99 in 0.8 mi SSW 5.8 mph - N/A   Overcast
7:16 AM 60.8 °F - 59.0 °F 94% 29.99 in 1.2 mi Variable 4.6 mph - N/A   Overcast
7:24 AM 60.8 °F - 59.0 °F 94% 29.99 in 1.8 mi South 3.5 mph - N/A   Overcast
7:50 AM 60.8 °F - 59.0 °F 94% 29.99 in 2.5 mi SSW 5.8 mph - N/A   Overcast
7:52 AM 60.1 °F - 59.0 °F 96% 30.01 in 2.5 mi SSW 5.8 mph - N/A   Overcast
8:00 AM 60.8 °F - 60.8 °F 100% 29.99 in 4.0 mi SSW 3.5 mph - N/A   Overcast
8:52 AM 62.1 °F - 60.1 °F 93% 30.00 in 7.0 mi South 4.6 mph - N/A   Overcast
9:52 AM 64.9 °F - 62.1 °F 90% 29.99 in 10.0 mi SSE 6.9 mph - N/A   Overcast
10:21 AM 68.0 °F - 62.6 °F 83% 29.97 in 10.0 mi SSE 4.6 mph - N/A   Scattered Clouds
10:52 AM 72.0 °F - 62.1 °F 71% 29.97 in 10.0 mi West 5.8 mph - N/A   Partly Cloudy
11:52 AM 75.9 °F - 62.1 °F 62% 29.95 in 10.0 mi West 5.8 mph - N/A   Clear
12:52 PM 77.0 °F - 61.0 °F 58% 29.93 in 10.0 mi Variable 5.8 mph - N/A   Clear
1:52 PM 79.0 °F - 60.1 °F 52% 29.91 in 10.0 mi West 8.1 mph - N/A   Clear
2:52 PM 81.0 °F 81.6 °F 60.1 °F 49% 29.90 in 10.0 mi Variable 3.5 mph - N/A   Clear
3:52 PM 81.0 °F 81.9 °F 62.1 °F 52% 29.89 in 10.0 mi WSW 4.6 mph - N/A   Clear
4:52 PM 81.0 °F 82.2 °F 63.0 °F 54% 29.88 in 10.0 mi Variable 4.6 mph - N/A   Partly Cloudy
5:52 PM 79.0 °F - 63.0 °F 58% 29.87 in 10.0 mi SW 5.8 mph - N/A   Clear
6:52 PM 75.9 °F - 66.0 °F 71% 29.87 in 10.0 mi SSW 4.6 mph - N/A   Clear
7:52 PM 73.0 °F - 66.0 °F 79% 29.88 in 10.0 mi SSE 4.6 mph - N/A   Clear
8:52 PM 70.0 °F - 66.0 °F 87% 29.88 in 10.0 mi South 4.6 mph - N/A   Clear
9:52 PM 71.1 °F - 66.0 °F 84% 29.88 in 10.0 mi SSW 5.8 mph - N/A   Clear
10:52 PM 70.0 °F - 66.0 °F 87% 29.87 in 10.0 mi Calm Calm - N/A   Clear
11:52 PM 69.1 °F - 66.0 °F 90% 29.86 in 10.0 mi Calm Calm - N/A   Clear